Date,TemperatureHighF,TemperatureAvgF,TemperatureLowF,DewpointHighF,DewpointAvgF,DewpointLowF,HumidityHigh,HumidityAvg,HumidityLow,PressureMaxIn,PressureMinIn,WindSpeedMaxMPH,WindSpeedAvgMPH,GustSpeedMaxMPH,PrecipitationSumIn
2014-1-1,-200,0,200,-100,-100,-100,0,0,100,30.35,30.15,18,9,21,0.00
2014-1-2,-200,0,200,-100,-100,-100,0,0,100,30.15,29.89,38,26,46,0.00
2014-1-3,14,0,13,-100,-100,-100,0,0,100,30.42,30.13,28,13,37,0.00
2014-1-4,34,1,13,-100,-100,-100,0,0,100,30.26,30.01,14,-28,30,0.00
2014-1-5,35,1,34,-100,-100,-100,0,0,100,30.10,29.33,13,4,17,0.00
2014-1-6,20,0,-9,-100,-100,-100,0,0,100,30.19,29.36,36,7,43,0.00
2014-1-7,1,0,1,-100,-100,-100,0,0,100,30.38,30.19,22,16,34,0.00
2014-1-8,21,0,11,-100,-100,-100,0,0,100,30.49,30.37,15,-13,20,0.00
2014-1-9,29,1,16,-100,-100,-100,0,0,100,30.60,30.34,13,-14,17,0.00
2014-1-10,41,2,36,-100,-100,-100,0,0,100,30.35,29.79,11,5,22,0.00
2014-1-11,36,2,34,-100,-100,-100,0,0,100,29.79,29.34,31,14,40,0.00
2014-1-12,37,5,33,-100,-100,-100,0,0,100,29.99,29.70,25,-30,28,0.00
2014-1-13,47,2,46,-100,-100,-100,0,0,100,29.85,29.68,15,9,26,0.00
2014-1-14,46,4,34,-100,-100,-100,0,0,100,29.85,29.69,27,-4,32,0.00
2014-1-15,29,1,27,-100,-100,-100,0,0,100,30.04,29.79,28,7,34,0.00
2014-1-16,29,2,24,-100,-100,-100,0,0,100,30.01,29.76,17,-12,22,0.00
2014-1-17,-200,0,200,-100,-100,-100,0,0,100,29.98,29.72,36,12,44,0.00
2014-1-18,20,0,12,-100,-100,-100,0,0,100,30.02,29.84,18,-12,25,0.00
2014-1-19,33,0,33,-100,-100,-100,0,0,100,29.85,29.64,25,13,36,0.00
2014-1-20,35,1,22,-100,-100,-100,0,0,100,30.01,29.57,25,3,28,0.00
2014-1-21,14,1,8,-100,-100,-100,0,0,100,30.17,29.98,25,-14,30,0.00
2014-1-22,11,0,6,-100,-100,-100,0,0,100,30.16,30.01,14,7,19,0.00
2014-1-23,12,1,8,-100,-100,-100,0,0,100,30.47,29.99,25,-18,30,0.00
2014-1-24,17,0,1,-100,-100,-100,0,0,100,30.48,29.72,17,-9,30,0.00
2014-1-25,17,0,17,-100,-100,-100,0,0,100,29.78,29.32,35,8,39,0.00
2014-1-26,29,0,22,-100,-100,-100,0,0,100,29.82,29.43,23,9,29,0.00
2014-1-27,13,0,12,-100,-100,-100,0,0,100,30.32,29.38,43,23,52,0.00
2014-1-28,5,0,-5,-100,-100,-100,0,0,100,30.43,30.27,22,10,30,0.00
2014-1-29,-200,0,200,-100,-100,-100,0,0,100,30.27,30.19,20,14,28,0.00
2014-1-30,22,1,12,-100,-100,-100,0,0,100,30.27,29.83,15,8,33,0.00
2014-1-31,33,1,31,-100,-100,-100,0,0,100,30.18,29.94,15,-6,23,0.00
2014-2-1,42,1,31,-100,-100,-100,0,0,100,30.16,29.83,15,-6,24,0.00
2014-2-2,28,0,24,-100,-100,-100,0,0,100,30.26,29.93,18,0,21,0.00
2014-2-3,23,0,23,-100,-100,-100,0,0,100,30.40,30.22,17,10,21,0.00
2014-2-4,17,0,17,-100,-100,-100,0,0,100,30.46,30.11,21,-2,24,0.00
2014-2-5,23,1,21,-100,-100,-100,0,0,100,30.34,29.73,38,10,44,0.00
2014-2-6,19,0,10,-100,-100,-100,0,0,100,30.39,30.29,24,0,31,0.00
2014-2-7,14,0,1,-100,-100,-100,0,0,100,30.40,30.36,20,-30,25,0.00
2014-2-8,17,0,7,-100,-100,-100,0,0,100,30.37,30.19,13,-16,17,0.00
2014-2-9,18,0,18,-100,-100,-100,0,0,100,30.19,30.01,19,7,22,0.00
2014-2-10,18,0,12,-100,-100,-100,0,0,100,30.37,30.17,16,-11,18,0.00
2014-2-11,10,0,8,-100,-100,-100,0,0,100,30.50,30.36,12,-13,14,0.00
2014-2-12,13,0,13,-100,-100,-100,0,0,100,30.48,30.11,9,4,10,0.00
2014-2-13,18,1,13,-100,-100,-100,0,0,100,30.11,29.58,14,-18,16,0.00
2014-2-14,26,0,26,-100,-100,-100,0,0,100,29.79,29.48,24,12,30,0.00
2014-2-15,22,1,13,-100,-100,-100,0,0,100,30.10,29.78,17,-5,19,0.00
2014-2-16,16,0,16,-100,-100,-100,0,0,100,30.38,29.98,10,4,12,0.00
2014-2-17,-3,0,-3,-100,-100,-100,0,0,100,30.41,29.67,14,-6,26,0.00
2014-2-18,36,0,36,-100,-100,-100,0,0,100,30.06,29.68,36,17,44,0.00
2014-2-19,42,1,39,-100,-100,-100,0,0,100,30.11,29.65,26,-7,30,0.00
2014-2-20,55,4,40,-100,-100,-100,0,0,100,30.12,29.54,18,-22,28,0.00
2014-2-21,42,1,40,-100,-100,-100,0,0,100,29.89,29.50,27,-17,40,0.00
2014-2-22,39,1,39,-100,-100,-100,0,0,100,30.03,29.83,28,-1,38,0.00
2014-2-23,35,0,35,-100,-100,-100,0,0,100,30.09,30.00,27,16,32,0.00
2014-2-24,24,1,22,-100,-100,-100,0,0,100,30.17,30.07,29,24,35,0.00
2014-2-25,22,1,18,-100,-100,-100,0,0,100,30.17,30.00,32,-14,37,0.00
2014-2-26,14,0,14,-100,-100,-100,0,0,100,30.14,29.73,29,17,35,0.00
2014-2-27,9,0,9,-100,-100,-100,0,0,100,30.21,29.59,37,10,45,0.00
2014-2-28,23,0,5,-100,-100,-100,0,0,100,30.36,30.14,12,4,15,0.00
2014-3-1,-200,0,200,-100,-100,-100,0,0,100,30.23,30.08,21,8,24,0.00
2014-3-2,17,0,13,-100,-100,-100,0,0,100,30.31,30.22,23,16,26,0.00
2014-3-3,7,0,5,-100,-100,-100,0,0,100,30.47,30.30,21,0,24,0.00
2014-3-4,18,0,17,-100,-100,-100,0,0,100,30.43,30.23,10,-6,13,0.00
2014-3-5,20,1,16,-100,-100,-100,0,0,100,30.49,30.24,20,-11,24,0.00
2014-3-6,34,1,26,-100,-100,-100,0,0,100,30.48,30.17,19,-2,22,0.00
2014-3-7,33,1,31,-100,-100,-100,0,0,100,30.18,29.93,10,4,17,0.00
2014-3-8,33,1,26,-100,-100,-100,0,0,100,30.16,29.93,13,8,15,0.00
2014-3-9,20,8,19,-100,-100,-100,0,0,100,30.19,30.16,6,3,7,0.00
2014-11-2,-200,0,200,-100,0,200,0,0,100,30.38,30.26,26,15,32,0.00
2014-11-3,57,1,57,-100,0,200,0,0,100,30.30,30.09,17,7,21,0.00
2014-11-4,66,2,66,-100,0,200,0,0,100,30.10,29.91,28,13,34,0.00
2014-11-5,53,2,51,-100,0,200,0,0,100,30.16,30.02,28,10,33,0.00
2014-11-6,-200,0,200,-100,0,200,0,0,100,30.02,29.70,31,7,35,0.00
2014-11-7,40,2,40,-100,0,200,0,0,100,30.07,29.85,32,18,37,0.00
2014-11-8,-200,0,200,-100,0,200,0,0,100,30.00,29.74,31,12,34,0.00
2014-11-9,-200,0,200,-100,0,200,0,0,100,29.96,29.85,23,10,27,0.00
2014-11-10,59,1,59,-100,0,200,0,0,100,29.98,29.79,9,5,17,0.00
2014-11-11,57,1,57,-100,0,200,0,0,100,29.87,29.70,30,12,36,0.00
2014-11-12,39,0,39,-100,0,200,0,0,100,30.21,29.87,31,19,39,0.00
2014-11-13,31,0,31,-100,0,200,0,0,100,30.18,30.10,31,13,35,0.00
2014-11-14,-200,0,200,-100,0,200,0,0,100,30.29,30.13,29,16,35,0.00
2014-11-15,-200,0,200,-100,0,200,0,0,100,30.38,30.24,23,10,26,0.00
2014-11-16,-200,0,200,-100,0,200,0,0,100,30.24,29.90,10,4,15,0.00
2014-11-17,-200,0,200,-100,0,200,0,0,100,29.90,29.63,34,15,48,0.00
2014-11-18,20,0,20,-100,0,200,0,0,100,30.16,29.99,34,21,46,0.00
2014-11-19,-200,0,200,-100,0,200,0,0,100,30.06,29.90,11,8,22,0.00
2014-11-20,27,1,27,-100,0,200,0,0,100,30.12,29.96,36,25,44,0.00
2014-11-21,-200,0,200,-100,0,200,0,0,100,30.47,30.15,30,14,36,0.00
2014-11-22,-200,0,200,-100,0,200,0,0,100,30.38,29.99,14,8,28,0.00